Home > Weather > Paradise > Past weeks

Flag for USA Weather for the Past 2 Weeks in Paradise, Nevada, USA

Now
71 °F

Passing clouds.


Feels Like: 76 °F
Forecast: 53 / 75 °F
Wind: 10 mph from East

Location: McCarran International Airport

Current Time: May 1, 2016 at 12:24:14 PM

Latest Report: May 1, 2016 at 11:56 AM


Visibility: 10 mi

Pressure: 29.84 "Hg (27.69 "Hg at 643m altitude)

Humidity: 31%

Dew Point: 39 °F

Location of ParadiseLocation

Historic Weather in Paradise — Graph

°F

Paradise Temperature Yesterday

Maximum temperature yesterday: 65 °F (at 12:56 AM)
Minimum temperature yesterday: 49 °F (at 7:56 AM)
Average temperature yesterday: 57 °F

High & Low Weather Summary for the Past Weeks

 TemperatureHumidityPressure
High91 °F (Apr 20, 3:56 PM)100% (Apr 30, 7:56 AM)30.13 "Hg (Apr 30, 7:56 AM)
Low49 °F (Apr 30, 7:56 AM)3% (Apr 20, 5:56 PM)29.51 "Hg (Apr 28, 2:56 AM)
Average69 °F28%29.78 "Hg
* Reported Apr 16 10:56 AM — May 1 10:56 AM, Paradise, Weather by CustomWeather, © 2016

Note: Actual official high and low records may vary slightly from our data, if they occured in-between our weather recording intervals... More about our weather records

Advertising

Paradise Weather History for the Previous 24 Hours

Scroll right to see more
 ConditionsComfort  
Time TempWeatherWind HumidityBarometerVisibility
10:56 AM
Sun, May 1
69 °FPassing clouds.9 mph36%29.84 "Hg10 mi
9:56 AM68 °FPassing clouds.6 mph35%29.84 "Hg10 mi
8:56 AM66 °FScattered clouds.9 mph40%29.83 "Hg10 mi
7:56 AM62 °FScattered clouds.No wind52%29.83 "Hg10 mi
6:56 AM56 °FScattered clouds.3 mph72%29.82 "Hg10 mi
5:56 AM54 °FPassing clouds.5 mph77%29.80 "Hg10 mi
4:56 AM55 °FPassing clouds.6 mph77%29.78 "Hg10 mi
3:56 AM55 °FPartly cloudy.6 mph77%29.78 "Hg10 mi
2:56 AM56 °FPartly cloudy.No wind77%29.76 "Hg10 mi
1:56 AM56 °FPartly cloudy.3 mph77%29.76 "Hg10 mi
12:56 AM57 °FPartly cloudy.6 mph74%29.77 "Hg10 mi
11:56 PM
Sat, Apr 30
61 °FPassing clouds.10 mph58%29.77 "Hg10 mi
10:56 PM60 °FPassing clouds.7 mph67%29.77 "Hg10 mi
9:56 PM58 °FLight rain. Mostly cloudy.9 mph75%29.78 "Hg10 mi
8:56 PM58 °FPassing clouds.No wind70%29.77 "Hg10 mi
7:56 PM57 °FPartly sunny.5 mph72%29.75 "Hg10 mi
6:56 PM57 °FPartly sunny.8 mph74%29.73 "Hg10 mi
5:56 PM57 °FPartly sunny.5 mph81%29.74 "Hg10 mi
4:56 PM61 °FThunderstorms. Cloudy.30 mph67%29.75 "Hg6 mi
3:56 PM64 °FMostly cloudy.10 mph49%29.69 "Hg10 mi
2:56 PM65 °FPartly sunny.14 mph49%29.69 "Hg10 mi
1:56 PM65 °FPartly sunny.12 mph52%29.70 "Hg10 mi
12:56 PM58 °FPartly sunny.5 mph97%29.71 "Hg10 mi
Weather by CustomWeather, © 2016

See weather overviewHow to use our weather pages